GW4223 Weather Reports


time (UTC)temp
C
wind
direction
speed
KPH
gust
KPH
rain 1hr
cm
rain 24hr
cm
rain mn
cm
humidity
%
barometer
mb
20260507071654 13 341 11.3 12.9 0.00 0.08 0.08 86 1011.6
20260507071149 13 353 11.3 12.9 0.00 0.08 0.08 86 1011.7
20260507070647 13 336 17.7 17.7 0.00 0.08 0.08 85 1011.5
20260507070144 13 299 12.9 14.5 0.00 0.08 0.08 86 1011.9
20260507065640 13 356 9.7 11.3 0.00 0.08 0.08 87 1011.7
20260507065137 13 338 11.3 12.9 0.00 0.08 0.08 88 1011.8
20260507064634 13 308 6.4 11.3 0.00 0.08 0.08 87 1011.9
20260507064133 13 309 9.7 12.9 0.00 0.08 0.08 88 1011.6
20260507063630 13 321 6.4 9.7 0.00 0.08 0.08 89 1011.7
20260507063127 13 354 9.7 11.3 0.00 0.08 0.08 90 1011.4
20260507062624 13 343 6.4 9.7 0.13 0.08 0.08 90 1011.6
20260507062121 13 354 9.7 11.3 0.13 0.08 0.08 90 1011.8
20260507061619 13 299 8.0 9.7 0.00 0.05 0.05 92 1011.7
20260507061117 13 339 1.6 1.6 0.18 0.05 0.05 91 1011.8
20260507060615 13 1 6.4 6.4 0.18 0.05 0.05 90 1011.6
20260507060111 13 25 11.3 12.9 0.00 0.03 0.03 90 1011.9
20260507055606 13 323 9.7 11.3 0.00 0.03 0.03 90 1011.9
20260507055103 13 6 12.9 16.1 0.00 0.03 0.03 93 1011.8
20260507054559 13 323 11.3 12.9 0.00 0.03 0.03 96 1011.8
20260507054056 13 347 8.0 9.7 0.18 0.03 0.03 95 1011.9
20260507053554 13 344 9.7 11.3 0.18 0.03 0.03 94 1011.6
20260507053052 14 316 12.9 14.5 0.18 0.03 0.03 92 1011.9
20260507052550 15 19 9.7 11.3 0.00 0.00 0.00 90 1012.0
20260507052046 15 349 6.4 12.9 0.00 0.00 0.00 86 1012.1
20260507051544 16 329 9.7 12.9 0.00 0.00 0.00 82 1012.0
20260507051040 16 329 6.4 6.4 0.00 0.00 0.00 80 1012.2
20260507050537 16 320 1.6 3.2 0.00 0.00 0.00 79 1012.2
20260507050033 16 330 6.4 6.4 0.00 0.00 0.00 79 1012.0
20260507045530 16 322 6.4 9.7 0.00 0.00 0.00 78 1011.7
20260507045027 16 11 0.0 0.0 0.00 0.00 0.00 78 1011.9
20260507044524 17 329 8.0 11.3 0.00 0.00 0.00 77 1011.5
20260507044021 17 317 4.8 9.7 0.00 0.00 0.00 76 1011.4
20260507043517 17 316 9.7 16.1 0.00 0.00 0.00 76 1011.6
20260507043014 17 359 4.8 6.4 0.00 0.00 0.00 82 1011.7
20260507042510 17 330 6.4 6.4 0.00 0.00 0.00 81 1011.2
20260507042006 17 337 6.4 6.4 0.00 0.00 0.00 81 1011.4
20260507041503 17 326 6.4 6.4 0.00 0.00 0.00 81 1011.2
20260507041000 17 312 3.2 3.2 0.00 0.00 0.00 82 1011.0
20260507040455 17 330 3.2 3.2 0.00 0.00 0.00 81 1010.8
20260507035951 17 331 3.2 3.2 0.00 0.36 0.36 81 1010.6
20260507035448 17 322 1.6 3.2 0.00 0.36 0.36 80 1010.9
20260507034945 17 303 3.2 4.8 0.00 0.36 0.36 80 1011.1
20260507034442 17 341 4.8 6.4 0.00 0.36 0.36 80 1011.2
20260507033940 17 336 1.6 1.6 0.00 0.36 0.36 81 1011.4
20260507033438 17 343 4.8 4.8 0.00 0.36 0.36 80 1011.3
20260507032934 17 289 3.2 3.2 0.00 0.36 0.36 80 1010.9
20260507032431 17 349 1.6 3.2 0.00 0.36 0.36 79 1011.1
20260507031927 18 358 1.6 1.6 0.00 0.36 0.36 79 1011.1
20260507031426 18 348 0.0 0.0 0.00 0.36 0.36 77 1010.9
20260507030921 18 267 3.2 3.2 0.00 0.36 0.36 77 1011.0
20260507030418 18 339 3.2 6.4 0.00 0.36 0.36 78 1010.8
20260507025915 18 26 0.0 1.6 0.00 0.36 0.36 78 1010.7
20260507025412 18 339 1.6 1.6 0.00 0.36 0.36 80 1010.9
20260507024910 19 10 0.0 1.6 0.00 0.36 0.36 83 1010.8
20260507024407 19 2 0.0 0.0 0.00 0.36 0.36 83 1010.8
20260507023903 19 3 1.6 1.6 0.00 0.36 0.36 84 1010.4
20260507023400 19 13 1.6 1.6 0.00 0.36 0.36 85 1010.3
20260507022857 19 183 1.6 1.6 0.00 0.36 0.36 86 1010.3
20260507022354 19 27 0.0 0.0 0.00 0.36 0.36 86 1010.4
20260507021850 18 42 0.0 1.6 0.00 0.36 0.36 87 1010.3
20260507021345 18 19 0.0 0.0 0.00 0.36 0.36 89 1010.2
20260507020843 18 6 0.0 0.0 0.00 0.36 0.36 88 1010.3
20260507020339 18 11 0.0 0.0 0.00 0.36 0.36 87 1010.0
20260507015837 18 2 0.0 0.0 0.00 0.36 0.36 87 1010.0
20260507015335 18 12 0.0 1.6 0.00 0.36 0.36 87 1010.0
20260507014831 19 23 0.0 0.0 0.00 0.36 0.36 86 1010.3
20260507014328 19 28 0.0 0.0 0.00 0.36 0.36 86 1010.3
20260507013824 19 28 0.0 0.0 0.00 0.36 0.36 86 1010.6
20260507013321 19 28 0.0 0.0 0.00 0.36 0.36 86 1010.5
20260507012819 19 36 0.0 0.0 0.00 0.36 0.36 86 1010.5
20260507012314 19 36 0.0 0.0 0.00 0.36 0.36 86 1010.6
20260507011811 19 41 0.0 0.0 0.00 0.36 0.36 85 1010.6
20260507011308 19 25 0.0 0.0 0.00 0.36 0.36 85 1010.6
20260507010808 19 25 0.0 0.0 0.00 0.36 0.36 85 1010.3
20260507010304 19 17 0.0 0.0 0.00 0.36 0.36 85 1010.4
20260507005801 19 16 0.0 0.0 0.00 0.36 0.36 84 1010.3
20260507005257 20 38 0.0 0.0 0.00 0.36 0.36 84 1010.2
20260507004754 20 41 0.0 0.0 0.00 0.36 0.36 83 1010.4
20260507004252 20 12 0.0 0.0 0.00 0.36 0.36 82 1010.0
20260507003748 20 53 1.6 3.2 0.00 0.36 0.36 81 1009.8
20260507003243 20 18 0.0 0.0 0.00 0.36 0.36 81 1010.3
20260507002739 20 44 0.0 1.6 0.00 0.36 0.36 81 1009.9
20260507002236 20 104 1.6 3.2 0.00 0.36 0.36 81 1010.0
20260507001732 20 22 0.0 0.0 0.00 0.36 0.36 81 1010.1
20260507001230 20 36 0.0 1.6 0.00 0.36 0.36 82 1010.1
20260507000726 20 157 6.4 6.4 0.00 0.36 0.36 81 1010.2
20260507000222 20 171 3.2 3.2 0.00 0.36 0.36 80 1009.8
20260506235719 20 59 0.0 1.6 0.00 0.36 0.36 80 1009.9
20260506235214 20 40 1.6 1.6 0.00 0.36 0.36 81 1010.4
20260506234711 20 49 0.0 1.6 0.00 0.36 0.36 81 1009.8
20260506234209 20 35 0.0 0.0 0.00 0.36 0.36 80 1009.6
20260506233706 20 15 0.0 0.0 0.00 0.36 0.36 81 1009.7
20260506233202 20 48 0.0 0.0 0.00 0.36 0.36 80 1009.7
20260506232659 20 195 3.2 4.8 0.00 0.36 0.36 79 1009.4
20260506232154 20 39 0.0 0.0 0.00 0.36 0.36 79 1009.3
20260506231651 20 354 0.0 1.6 0.00 0.36 0.36 79 1009.5
20260506231150 20 31 0.0 0.0 0.00 0.36 0.36 79 1009.8
20260506230646 20 72 1.6 3.2 0.00 0.36 0.36 80 1009.6
20260506230143 21 25 3.2 3.2 0.00 0.36 0.36 79 1009.3
20260506225640 21 100 3.2 4.8 0.00 0.36 0.36 78 1009.3
20260506225137 21 76 1.6 1.6 0.00 0.36 0.36 79 1009.5
20260506224633 21 28 0.0 0.0 0.00 0.36 0.36 79 1009.4
20260506224130 21 35 0.0 0.0 0.00 0.36 0.36 79 1009.5
20260506223626 21 93 1.6 3.2 0.00 0.36 0.36 79 1009.5
20260506223122 21 60 1.6 1.6 0.00 0.36 0.36 77 1009.6
20260506222619 21 109 1.6 3.2 0.00 0.36 0.36 78 1009.4
20260506222115 21 90 0.0 1.6 0.00 0.36 0.36 78 1009.5
20260506221613 21 101 3.2 3.2 0.00 0.36 0.36 78 1009.4
20260506221111 21 40 0.0 0.0 0.00 0.36 0.36 78 1009.6
20260506220607 21 26 0.0 1.6 0.00 0.36 0.36 77 1009.6
20260506215559 21 21 0.0 1.6 0.00 0.36 0.36 76 1009.5
20260506215055 21 12 3.2 3.2 0.00 0.36 0.36 77 1009.6
20260506214552 21 24 0.0 0.0 0.00 0.36 0.36 76 1009.5
20260506214049 21 37 0.0 1.6 0.00 0.36 0.36 76 1009.4
20260506213547 21 7 1.6 3.2 0.00 0.36 0.36 76 1009.4
20260506213044 21 197 1.6 1.6 0.00 0.36 0.36 74 1009.1
20260506212541 21 5 3.2 3.2 0.00 0.36 0.36 75 1009.2
20260506212036 21 38 0.0 0.0 0.00 0.36 0.36 75 1009.2
20260506211532 21 111 1.6 3.2 0.00 0.36 0.36 76 1009.3
20260506211030 21 38 1.6 1.6 0.00 0.36 0.36 76 1009.2
20260506210526 21 295 1.6 1.6 0.00 0.36 0.36 75 1009.0
20260506210023 21 24 0.0 1.6 0.00 0.36 0.36 75 1009.0
20260506205520 21 65 1.6 1.6 0.00 0.36 0.36 75 1008.9
20260506205015 21 10 0.0 0.0 0.00 0.36 0.36 77 1009.0
20260506204513 21 70 3.2 4.8 0.00 0.36 0.36 76 1009.0
20260506204010 21 97 1.6 1.6 0.00 0.36 0.36 75 1009.0
20260506203508 21 75 4.8 6.4 0.00 0.36 0.36 75 1009.0
20260506203004 22 6 3.2 3.2 0.00 0.36 0.36 74 1009.0
20260506202502 21 22 1.6 1.6 0.00 0.36 0.36 75 1008.8
20260506201957 22 18 3.2 3.2 0.00 0.36 0.36 73 1008.9
20260506201456 22 5 3.2 4.8 0.00 0.36 0.36 72 1008.8
20260506200952 22 308 3.2 4.8 0.00 0.36 0.36 72 1009.1
20260506200448 22 13 1.6 3.2 0.00 0.36 0.36 72 1008.7
20260506195945 22 32 3.2 3.2 0.00 0.36 0.36 75 1008.9
20260506195442 22 261 3.2 3.2 0.00 0.36 0.36 73 1008.8
20260506194938 22 126 4.8 6.4 0.00 0.36 0.36 72 1008.9
20260506194436 22 30 3.2 3.2 0.00 0.36 0.36 73 1008.9
20260506193932 21 75 4.8 4.8 0.00 0.36 0.36 74 1008.9
20260506193430 21 136 3.2 3.2 0.00 0.36 0.36 75 1009.1
20260506192926 21 243 4.8 9.7 0.00 0.36 0.36 73 1008.9
20260506192423 22 94 3.2 4.8 0.00 0.36 0.36 74 1009.0
20260506191920 21 82 3.2 4.8 0.00 0.36 0.36 74 1008.9
20260506191416 22 175 1.6 3.2 0.00 0.36 0.36 74 1009.2
20260506190913 21 204 1.6 1.6 0.00 0.36 0.36 76 1009.4
20260506190410 21 8 1.6 3.2 0.00 0.36 0.36 76 1009.3
20260506185907 21 63 3.2 4.8 0.00 0.36 0.36 76 1009.5
20260506185404 21 32 0.0 1.6 0.00 0.36 0.36 77 1009.4
20260506184901 21 36 1.6 3.2 0.00 0.36 0.36 76 1009.5
20260506184358 21 77 3.2 4.8 0.00 0.36 0.36 77 1009.6
20260506183855 21 32 0.0 1.6 0.00 0.36 0.36 78 1009.6
20260506183350 21 152 3.2 3.2 0.00 0.36 0.36 78 1009.6
20260506182848 21 26 3.2 3.2 0.00 0.36 0.36 78 1009.8
20260506182345 21 11 3.2 4.8 0.00 0.36 0.36 79 1009.7
20260506181842 20 349 3.2 4.8 0.00 0.36 0.36 79 1009.9
20260506181340 20 78 0.0 1.6 0.00 0.36 0.36 79 1010.0
20260506180831 20 220 4.8 6.4 0.00 0.36 0.36 79 1009.9
20260506180327 20 239 14.5 20.9 0.00 0.36 0.36 79 1010.0
20260506175823 20 321 1.6 1.6 0.00 0.36 0.36 81 1010.0
20260506175320 20 4 3.2 6.4 0.00 0.36 0.36 81 1009.9
20260506174818 20 124 1.6 3.2 0.00 0.36 0.36 79 1010.0
20260506174315 20 3 1.6 1.6 0.00 0.36 0.36 83 1009.9
20260506173813 19 325 3.2 4.8 0.00 0.36 0.36 83 1010.0
20260506173309 20 89 6.4 9.7 0.00 0.36 0.36 82 1009.8
20260506172806 19 170 8.0 11.3 0.00 0.36 0.36 83 1010.2
20260506172306 19 129 4.8 6.4 0.00 0.36 0.36 83 1010.0
20260506171800 19 184 4.8 6.4 0.00 0.36 0.36 84 1010.0
20260506171257 19 52 1.6 3.2 0.00 0.36 0.36 86 1010.0
20260506170755 19 117 4.8 4.8 0.00 0.36 0.36 86 1010.1
20260506170251 18 98 6.4 9.7 0.00 0.36 0.36 86 1010.1
20260506165750 18 105 1.6 1.6 0.00 0.36 0.36 90 1010.2
20260506165247 18 102 0.0 1.6 0.00 0.36 0.36 90 1010.5
20260506164744 18 49 1.6 3.2 0.00 0.36 0.36 90 1010.6
20260506164241 17 163 3.2 4.8 0.00 0.36 0.36 91 1010.5
20260506163737 17 69 3.2 4.8 0.00 0.36 0.36 91 1010.4
20260506163231 18 23 1.6 1.6 0.00 0.36 0.36 92 1010.3
20260506162728 17 20 1.6 3.2 0.00 0.36 0.36 92 1010.3
20260506162226 17 170 4.8 11.3 0.00 0.36 0.36 92 1010.4
20260506161723 17 143 3.2 4.8 0.00 0.36 0.36 92 1010.3
20260506161220 17 150 3.2 4.8 0.00 0.36 0.36 94 1010.5
20260506160718 17 35 1.6 1.6 0.00 0.36 0.36 94 1010.3
20260506160214 17 74 3.2 3.2 0.00 0.36 0.36 95 1010.7
20260506155713 16 64 1.6 1.6 0.00 0.36 0.36 95 1010.9
20260506155209 16 81 6.4 11.3 0.13 0.36 0.36 95 1010.8
20260506153311 16 231 6.4 11.3 0.00 0.33 0.33 96 1010.6
20260506152809 16 200 4.8 6.4 0.00 0.33 0.33 96 1010.8
20260506152306 16 69 3.2 4.8 0.00 0.33 0.33 96 1011.1
20260506151805 16 135 3.2 3.2 0.00 0.33 0.33 95 1011.2
20260506151301 16 131 4.8 6.4 0.18 0.33 0.33 95 1011.4
20260506150757 16 107 6.4 6.4 0.30 0.33 0.33 95 1011.6
20260506150303 16 50 0.0 0.0 0.30 0.30 0.30 95 1011.6
20260506145752 16 114 3.2 9.7 0.48 0.28 0.28 95 1011.5
20260506145248 16 134 3.2 6.4 0.61 0.25 0.25 94 1011.5
20260506144746 16 44 0.0 0.0 0.61 0.20 0.20 94 1011.5
20260506144242 16 158 4.8 4.8 0.30 0.15 0.15 92 1011.5
20260506143740 16 92 1.6 3.2 0.18 0.10 0.10 92 1011.6
20260506143237 16 176 1.6 1.6 0.18 0.10 0.10 92 1011.4
20260506142736 16 197 1.6 1.6 0.30 0.10 0.10 92 1011.5
20260506142233 16 5 1.6 3.2 0.30 0.08 0.08 91 1011.5
20260506141731 17 78 0.0 0.0 0.30 0.08 0.08 91 1011.3
20260506141230 17 76 3.2 3.2 0.30 0.05 0.05 89 1011.7
20260506140727 17 131 3.2 3.2 0.13 0.03 0.03 88 1011.5
20260506140223 17 26 1.6 1.6 0.00 0.00 0.00 86 1011.5
20260506135719 17 13 0.0 1.6 0.00 0.00 0.00 84 1011.8
20260506135216 18 197 8.0 11.3 0.00 0.00 0.00 83 1011.9
20260506134714 18 38 0.0 0.0 0.00 0.00 0.00 82 1012.0
20260506134209 18 73 3.2 4.8 0.00 0.00 0.00 81 1012.1
20260506133707 18 43 0.0 0.0 0.00 0.00 0.00 81 1011.9
20260506133203 18 38 1.6 1.6 0.00 0.00 0.00 79 1011.9
20260506132701 18 229 6.4 6.4 0.00 0.00 0.00 78 1011.5
20260506132158 18 92 1.6 1.6 0.00 0.00 0.00 78 1011.4
20260506131655 18 81 1.6 3.2 0.00 0.00 0.00 77 1011.4
20260506131151 18 63 1.6 1.6 0.00 0.00 0.00 77 1011.1
20260506130648 18 25 1.6 1.6 0.00 0.00 0.00 77 1011.1
20260506130146 18 32 3.2 4.8 0.00 0.00 0.00 76 1011.1
20260506125644 18 171 4.8 11.3 0.00 0.00 0.00 76 1011.0
20260506125141 18 112 3.2 4.8 0.00 0.00 0.00 77 1011.2
20260506124638 18 160 3.2 6.4 0.00 0.00 0.00 76 1011.1
20260506124136 18 108 3.2 3.2 0.00 0.00 0.00 76 1011.3
20260506123634 18 49 6.4 11.3 0.00 0.00 0.00 77 1011.2
20260506123132 18 359 6.4 11.3 0.00 0.00 0.00 77 1011.4
20260506122629 18 105 4.8 6.4 0.00 0.00 0.00 76 1011.8
20260506122126 18 45 1.6 1.6 0.00 0.00 0.00 77 1011.6
20260506121623 18 33 0.0 1.6 0.00 0.00 0.00 78 1011.5
20260506121119 18 69 0.0 1.6 0.00 0.00 0.00 76 1011.6
20260506120618 18 35 0.0 1.6 0.00 0.00 0.00 75 1011.7
20260506120115 18 279 3.2 4.8 0.00 0.00 0.00 74 1011.5
20260506115613 18 71 1.6 4.8 0.00 0.00 0.00 74 1011.6
20260506115111 18 61 3.2 3.2 0.00 0.00 0.00 75 1011.4
20260506114608 19 148 6.4 9.7 0.00 0.00 0.00 74 1011.3
20260506114106 19 85 3.2 4.8 0.00 0.00 0.00 74 1011.3
20260506113603 19 136 3.2 4.8 0.00 0.00 0.00 74 1011.2
20260506113101 19 149 6.4 6.4 0.00 0.00 0.00 74 1011.1
20260506112557 18 276 1.6 3.2 0.00 0.00 0.00 74 1011.1
20260506112055 18 18 3.2 4.8 0.00 0.00 0.00 75 1011.1
20260506111552 18 61 1.6 1.6 0.00 0.00 0.00 76 1011.0
20260506111049 18 79 1.6 1.6 0.00 0.00 0.00 75 1010.9
20260506110547 18 57 1.6 1.6 0.00 0.00 0.00 76 1010.9
20260506110044 18 143 1.6 3.2 0.00 0.00 0.00 75 1010.7
20260506105540 18 21 1.6 1.6 0.00 0.00 0.00 75 1010.8
20260506105038 18 65 3.2 3.2 0.00 0.00 0.00 76 1010.8
20260506104536 18 172 4.8 4.8 0.00 0.00 0.00 76 1010.8
20260506104033 18 147 4.8 9.7 0.00 0.00 0.00 76 1010.7
20260506103530 18 73 3.2 3.2 0.00 0.00 0.00 76 1010.9
20260506103027 18 114 1.6 3.2 0.00 0.00 0.00 76 1010.8
20260506102525 18 185 4.8 6.4 0.00 0.00 0.00 76 1010.9
20260506102023 18 73 1.6 3.2 0.00 0.00 0.00 76 1010.8
20260506101519 18 47 1.6 4.8 0.00 0.00 0.00 76 1010.7
20260506101017 18 105 4.8 4.8 0.00 0.00 0.00 76 1010.7
20260506100515 18 109 3.2 4.8 0.00 0.00 0.00 75 1010.8
20260506100013 18 193 4.8 11.3 0.00 0.00 0.00 76 1010.8
20260506095512 18 107 1.6 3.2 0.00 0.00 0.00 76 1010.7
20260506095007 18 82 1.6 1.6 0.00 0.00 0.00 76 1010.9
20260506094505 18 92 3.2 3.2 0.00 0.00 0.00 76 1010.8
20260506094003 18 160 3.2 4.8 0.00 0.00 0.00 76 1010.8
20260506093501 18 24 3.2 3.2 0.00 0.00 0.00 76 1010.9
20260506092958 18 154 3.2 3.2 0.00 0.00 0.00 75 1010.7
20260506092456 18 48 1.6 1.6 0.00 0.00 0.00 74 1010.8
20260506091952 18 83 0.0 0.0 0.00 0.00 0.00 75 1010.7
20260506091451 18 317 0.0 0.0 0.00 0.00 0.00 74 1011.1
20260506090947 18 109 3.2 4.8 0.00 0.00 0.00 74 1011.0
20260506090445 18 44 1.6 1.6 0.00 0.00 0.00 74 1010.7
20260506085941 18 53 0.0 1.6 0.00 0.00 0.00 74 1011.1
20260506085438 18 78 0.0 0.0 0.00 0.00 0.00 73 1010.9
20260506084934 19 164 6.4 9.7 0.00 0.00 0.00 73 1011.0
20260506084432 19 122 1.6 1.6 0.00 0.00 0.00 72 1011.0
20260506083927 19 145 3.2 4.8 0.00 0.00 0.00 72 1010.9
20260506083424 19 107 4.8 6.4 0.00 0.00 0.00 71 1010.9
20260506082922 20 30 0.0 0.0 0.00 0.00 0.00 71 1011.0
20260506082419 20 143 6.4 12.9 0.00 0.00 0.00 70 1010.9
20260506081914 20 130 3.2 4.8 0.00 0.00 0.00 71 1010.9
20260506081413 20 167 6.4 6.4 0.00 0.00 0.00 70 1010.7
20260506080910 20 67 1.6 3.2 0.00 0.00 0.00 70 1010.8
20260506080406 20 82 1.6 3.2 0.00 0.00 0.00 70 1010.7
20260506073350 20 335 0.0 0.0 0.00 0.00 0.00 69 1011.0
20260506072847 20 107 4.8 6.4 0.00 0.00 0.00 68 1011.3
20260506072345 20 20 0.0 1.6 0.00 0.00 0.00 67 1011.2